1357847238332442,  0.01772387365, -0.00707095744,  0.00027791458, -0.00001070035,  0.00001120145, -0.00031996686,  0.01729837693,  0.00038850446,  0.00000789507,  0.00000102697,  0.00015172191,  0.04633835210,  0.00121870581,  0.00009210829, -0.00001143486,  0.00013549611, -0.00000492541, -0.00000076835,  0.00009277145,  0.00000011318,  0.00006997305
1357847257530300,  0.01586731185, -0.00750228996,  0.00024071959, -0.00003114776, -0.00000163744, -0.00025580418,  0.01867264238,  0.00015132609,  0.00001010073,  0.00000276451,  0.00023444512,  0.04063063155,  0.00094061901,  0.00044160577, -0.00008004666,  0.00010249873,  0.00001101584, -0.00000287003,  0.00007500340, -0.00000175258,  0.00004706651
1357847261129885,  0.01430776061, -0.00741219196,  0.00019482019, -0.00001386702, -0.00000397518, -0.00020019205,  0.02065651849,  0.00007606160, -0.00001027587,  0.00000257338,  0.00030138116,  0.03658625031,  0.00081347102,  0.00032176637, -0.00001375294,  0.00009596320,  0.00001263887, -0.00000118612,  0.00007668481, -0.00000135317,  0.00004510331
1357847264929465,  0.01318520965, -0.00694264358,  0.00015790189, -0.00002780263, -0.00000112212, -0.00015389184,  0.02301638275,  0.00008629094,  0.00001980627,  0.00000222141,  0.00035778507,  0.03488710648,  0.00075444681,  0.00005899908, -0.00006977991,  0.00008746250,  0.00001026705, -0.00000351183,  0.00007832739, -0.00000231836,  0.00004321523
1357847268329086,  0.01239947563, -0.00614833406,  0.00014626289, -0.00001906467,  0.00000159680, -0.00010550650,  0.02561144017,  0.00014626535,  0.00001446345, -0.00000380203,  0.00040868550,  0.03504907771,  0.00067349138, -0.00015045925, -0.00003780183,  0.00008967090,  0.00001810376, -0.00000247110,  0.00007890593, -0.00000184164,  0.00004478151
1357847271928690,  0.01190100616, -0.00501803782,  0.00011762162, -0.00001689217, -0.00000096710, -0.00006050265,  0.02847545381,  0.00021314494,  0.00002259832, -0.00000481726,  0.00044629393,  0.03684343006,  0.00063815261, -0.00020068219, -0.00003576428,  0.00009507965,  0.00001933392, -0.00000197540,  0.00008957369, -0.00000250429,  0.00005413724
1357847275528287,  0.01164946856, -0.00339875306,  0.00011300844, -0.00001273274,  0.00000010776, -0.00001865907,  0.03134981665,  0.00032132856,  0.00001482992, -0.00001392605,  0.00047524244,  0.03989550639,  0.00054720635, -0.00041997361, -0.00001776771,  0.00010502774,  0.00001190354, -0.00000145577,  0.00009482872, -0.00000148077,  0.00006603611
1357847279127886,  0.01172996934, -0.00150714930,  0.00010141065, -0.00001034597, -0.00000281067,  0.00002387202,  0.03411029163,  0.00045825353,  0.00002893921, -0.00001637751,  0.00050912880,  0.04433962779,  0.00062294724, -0.00045657633, -0.00002462111,  0.00010062950,  0.00001001303, -0.00000092508,  0.00010318309, -0.00000178071,  0.00006770247
1357847282727488,  0.01223784384,  0.00093560052,  0.00020911508, -0.00000791388, -0.00000434922,  0.00007393450,  0.03614718592,  0.00059656009, -0.00000224507, -0.00001094795,  0.00053649796,  0.04971461029,  0.00064647582, -0.00061359135,  0.00002892358,  0.00010067092,  0.00000570666, -0.00000221756,  0.00010863359, -0.00000129040,  0.00006979239
1357847286527068,  0.01332229300,  0.00366350150,  0.00037987040, -0.00000018185, -0.00000582141,  0.00013692042,  0.03679963422,  0.00068301819,  0.00000402680, -0.00000354741,  0.00055089836,  0.05563430515,  0.00095449418, -0.00042616089,  0.00003720306,  0.00010000831, -0.00000674102, -0.00000101961,  0.00011221834, -0.00000126166,  0.00007216751
1357847290126693,  0.01476933992,  0.00567471810,  0.00044532529, -0.00000618603, -0.00000559800,  0.00019863294,  0.03482154116,  0.00077931677, -0.00001297331, -0.00000671214,  0.00053254077,  0.05907122124,  0.00110805820, -0.00035191598,  0.00008174862,  0.00009835573, -0.00001457820, -0.00000101130,  0.00010564889, -0.00000139176,  0.00006941899
1357847294926122,  0.01568678278,  0.00579263629,  0.00048214723,  0.00001289874,  0.00000641156,  0.00022998204,  0.03049698359,  0.00077089457,  0.00002715822,  0.00001865685,  0.00046884471,  0.05658404312,  0.00092439026,  0.00071127967, -0.00001422292,  0.00012579072,  0.00000264573,  0.00000175889,  0.00010089577, -0.00000004117,  0.00008578763
1357847298725700,  0.01495468020,  0.00408339870,  0.00049659977,  0.00000754033,  0.00000890655,  0.00021148646,  0.02633493333,  0.00058619545,  0.00001155297,  0.00001618370,  0.00041695806,  0.04797910982,  0.00051057855,  0.00088495844,  0.00000345494,  0.00011562012,  0.00001114800,  0.00000104165,  0.00009348938,  0.00000030703,  0.00007427106
1357847302325323,  0.01396329889,  0.00236376344,  0.00051495230,  0.00000724817,  0.00000975951,  0.00017643667,  0.02311867445,  0.00037417354,  0.00000777070,  0.00000527839,  0.00036748188,  0.03995095876,  0.00036483495,  0.00076630205,  0.00000748334,  0.00010597133,  0.00001293087,  0.00000123982,  0.00008839430,  0.00000042901,  0.00006918676
1357847305924907,  0.01313150630,  0.00087881683,  0.00048777335,  0.00000562137,  0.00000877967,  0.00014749226,  0.02015658219,  0.00025901854,  0.00000037559, -0.00000300614,  0.00032299187,  0.03317623380,  0.00034298438,  0.00060180444,  0.00001454059,  0.00009415913,  0.00000718736,  0.00000094015,  0.00007120824,  0.00000075359,  0.00005338710
1357847309524511,  0.01245207658, -0.00037639664,  0.00044654786,  0.00000363411,  0.00001060829,  0.00012090750,  0.01763635126,  0.00019870515, -0.00000315367, -0.00000517879,  0.00027720402,  0.02771445828,  0.00021317711,  0.00050143251,  0.00000822892,  0.00006844755,  0.00000972329,  0.00000060762,  0.00006357620,  0.00000092035,  0.00003695606
1357847313124106,  0.01198873922, -0.00134170383,  0.00039949896,  0.00000500878,  0.00000850746,  0.00009078299,  0.01539317408,  0.00018430752, -0.00000673025, -0.00001232851,  0.00023722580,  0.02363772557,  0.00021849951,  0.00034150033,  0.00001120474,  0.00007221657,  0.00001082711,  0.00000108355,  0.00005274525,  0.00000105151,  0.00003488047
1357847316723708,  0.01166624768, -0.00212446952,  0.00034695362,  0.00000205193,  0.00001039399,  0.00006424880,  0.01333407462,  0.00020842313, -0.00001299011, -0.00001161883,  0.00020033128,  0.02054177416,  0.00011870558,  0.00024114605,  0.00000440810,  0.00007191376,  0.00001155608,  0.00000125612,  0.00005752925,  0.00000101141,  0.00003815697
1357847320523276,  0.01142564002, -0.00272971373,  0.00030414961,  0.00000150776,  0.00001203764,  0.00004065237,  0.01164809788,  0.00026039786, -0.00001344140, -0.00001212176,  0.00017732671,  0.01853175098,  0.00003073652,  0.00014576455, -0.00000350072,  0.00006464120,  0.00000994466,  0.00000062337,  0.00005332562,  0.00000037328,  0.00003295240
1357847323922908,  0.01128683070, -0.00319039991,  0.00025977509,  0.00000011313,  0.00001090103,  0.00001692983,  0.01022252457,  0.00035041489, -0.00001784209, -0.00001865251,  0.00015382703,  0.01757332881, -0.00004706340,  0.00004375437, -0.00000454569,  0.00005777439,  0.00000967153,  0.00000098857,  0.00005101911,  0.00000103722,  0.00002984315
1357847327722484,  0.01127607216, -0.00358225576,  0.00022575135, -0.00000242434,  0.00000965709, -0.00001090217,  0.00904777354,  0.00047562364, -0.00002443647, -0.00002465810,  0.00013563861,  0.01777871560, -0.00012146151, -0.00009110749, -0.00001865042,  0.00004966458,  0.00001016889,  0.00000146332,  0.00005386005,  0.00000194932,  0.00002881155
1357847371317690,  0.01145218459, -0.00386842920,  0.00019851923, -0.00000271519,  0.00001113659, -0.00003939709,  0.00800616003,  0.00068893822, -0.00002714887, -0.00003064245,  0.00012178415,  0.01931187562, -0.00019768805, -0.00021014484, -0.00002318321,  0.00004988975,  0.00001326584,  0.00000161416,  0.00005058419,  0.00000155746,  0.00002757239
1357847375117225,  0.01175336221, -0.00396732144,  0.00018652742,  0.00000006273,  0.00001006954, -0.00006571972,  0.00708981147,  0.00086404457, -0.00003242328, -0.00002770307,  0.00010675622,  0.02183736989, -0.00031673056, -0.00027042059, -0.00003564025,  0.00005466370,  0.00001442481,  0.00000223847,  0.00004590787,  0.00000170252,  0.00002806726
1357847378916790,  0.01195703098, -0.00374659607,  0.00016108142,  0.00000998417,  0.00001097252, -0.00008129428,  0.00614675706,  0.00103497277, -0.00004734132, -0.00001963108,  0.00008135397,  0.02431972843, -0.00045459255, -0.00021546568, -0.00008436533,  0.00005998862,  0.00000979382,  0.00000423577,  0.00003799805,  0.00000202735,  0.00002868771
1357847382916344,  0.01189978121, -0.00332255404,  0.00010856921,  0.00000915532,  0.00001000504, -0.00008572238,  0.00540213077,  0.00116399747, -0.00004789935, -0.00000330502,  0.00006371177,  0.02571426243, -0.00054203059, -0.00005424407, -0.00005746312,  0.00006502197,  0.00000297618,  0.00000401359,  0.00003336597,  0.00000044578,  0.00002873296
1357847386715941,  0.01160076169, -0.00286656781,  0.00010633326,  0.00000695497,  0.00000603228, -0.00008402357,  0.00485475271,  0.00108524689, -0.00003964291,  0.00000676565,  0.00005074546,  0.02583950285, -0.00053669906,  0.00006214383, -0.00004477243,  0.00006270046,  0.00000007238,  0.00000383696,  0.00003174431,  0.00000004341,  0.00002773982
1357847390515500,  0.01107631184, -0.00244360733,  0.00011649455,  0.00000985323,  0.00000403734, -0.00007253105,  0.00448518686,  0.00089859121, -0.00003102968,  0.00001333973,  0.00004107544,  0.02429554035, -0.00044291254,  0.00018865293, -0.00006689705,  0.00005909804, -0.00000549515,  0.00000468321,  0.00003237575, -0.00000086707,  0.00002740645
1357847394315086,  0.01060381160, -0.00209591622,  0.00010722492,  0.00000487682,  0.00000230355, -0.00006402692,  0.00421139701,  0.00077732286, -0.00002276821,  0.00001448077,  0.00003658693,  0.02278604816, -0.00037598197,  0.00020789699, -0.00003960867,  0.00005860221, -0.00000661684,  0.00000363508,  0.00003332619, -0.00000079176,  0.00002690279
1357847397914675,  0.01014071973, -0.00180012103,  0.00010259368,  0.00000233606,  0.00000143229, -0.00005299170,  0.00399661960,  0.00064866085, -0.00001788493,  0.00001189557,  0.00003394531,  0.02101981118, -0.00031970851,  0.00017064133, -0.00002855611,  0.00005856893, -0.00000633576,  0.00000309359,  0.00003292332, -0.00000067731,  0.00002667161
1357847401514275,  0.00976398088, -0.00155294255,  0.00010112102,  0.00000017806,  0.00000105784, -0.00004440859,  0.00381325014,  0.00055086814, -0.00001411640,  0.00000892653,  0.00003294189,  0.01961704540, -0.00027479996,  0.00012616561, -0.00001752564,  0.00005830395, -0.00000525299,  0.00000273959,  0.00003164668, -0.00000042749,  0.00002595107
1357847405113874,  0.00943829770, -0.00132379133,  0.00010438758, -0.00000106901,  0.00000067037, -0.00003607567,  0.00364704722,  0.00047218558, -0.00001034180,  0.00000729743,  0.00003193581,  0.01849569814, -0.00022088693,  0.00010708216, -0.00001197593,  0.00005798351, -0.00000688694,  0.00000247036,  0.00003238319, -0.00000050352,  0.00002602333
1357847409313407,  0.00917447493, -0.00112377539,  0.00010811134, -0.00000263384, -0.00000156343, -0.00003008036,  0.00347789109,  0.00042841497, -0.00000887524,  0.00000365512,  0.00003034378,  0.01787793661, -0.00020718111,  0.00000306309, -0.00000073825,  0.00005715275,  0.00000184624,  0.00000168857,  0.00002982966, -0.00000010241,  0.00002495686
1357847412713027,  0.00898033410, -0.00094307516,  0.00013672128, -0.00000303277, -0.00000150060, -0.00002991495,  0.00328322653,  0.00040691737, -0.00000841985, -0.00000041988,  0.00002323127,  0.01807291983, -0.00020892097, -0.00004995582, -0.00001028716,  0.00005322546,  0.00000271736,  0.00000257911,  0.00002971449,  0.00000025406,  0.00002430231
1357847416312620,  0.00884605617, -0.00076447638,  0.00020800985, -0.00000480416, -0.00000610187, -0.00003469560,  0.00313336377,  0.00039530120, -0.00000563749, -0.00000271170,  0.00001390643,  0.01906683435, -0.00022575904, -0.00012810747, -0.00001865769,  0.00005259906,  0.00000417412,  0.00000299497,  0.00003288165,  0.00000039502,  0.00002523141
1357847419912240,  0.00874435602, -0.00057343956,  0.00028901830, -0.00000490926, -0.00000993502, -0.00004696313,  0.00303239502,  0.00041346454, -0.00000300033, -0.00000495185,  0.00000409926,  0.02082961437, -0.00022299560, -0.00024456300, -0.00001942146,  0.00004207760,  0.00000878365,  0.00000173675,  0.00003611167,  0.00000093396,  0.00002340878
1357847424711690,  0.00856302712, -0.00034466969,  0.00032566504, -0.00001753264, -0.00000091393, -0.00005149755,  0.00303339190,  0.00046783582, -0.00000853778, -0.00000056827, -0.00000825982,  0.02274530188, -0.00039254145,  0.00003513759,  0.00002960011,  0.00004708941, -0.00000039831,  0.00000001364,  0.00002838030,  0.00000002974,  0.00002318603
1357847428311303,  0.00814307939, -0.00032318446,  0.00026289886, -0.00000893564,  0.00000491687, -0.00004655322,  0.00304774191,  0.00046937268, -0.00000733368,  0.00000407244, -0.00001007375,  0.02153079501, -0.00030691760,  0.00020024482,  0.00000054921,  0.00004917068, -0.00000656109,  0.00000020487,  0.00003028820,  0.00000008722,  0.00002408646
1357847431910892,  0.00774302231, -0.00036748663,  0.00022971269, -0.00000764461,  0.00000650991, -0.00004153784,  0.00304665507,  0.00042883067, -0.00000593629,  0.00000420888, -0.00000829731,  0.01976671810, -0.00024620618,  0.00019799952,  0.00000482628,  0.00005212847, -0.00000673168,  0.00000003781,  0.00003107124,  0.00000020294,  0.00002484182
1357847435510489,  0.00737632856, -0.00042161597,  0.00019650038, -0.00000802744,  0.00000520369, -0.00003860804,  0.00302834058,  0.00039071078, -0.00000527640,  0.00000279937, -0.00000545510,  0.01814088822, -0.00022527454,  0.00014046371,  0.00000441743,  0.00005301975, -0.00000392336, -0.00000015851,  0.00002860112,  0.00000016293,  0.00002450769
1357847439510313,  0.00701251578, -0.00044893572,  0.00015971112, -0.00000898563,  0.00000298671, -0.00003217990,  0.00302286514,  0.00036756730, -0.00000519799,  0.00000223756, -0.00000549401,  0.01691622653, -0.00019920858,  0.00011156255,  0.00001248954,  0.00005339827, -0.00000266454, -0.00000114516,  0.00002796861,  0.00000018082,  0.00002481704
1357847443109650,  0.00671694104, -0.00047804059,  0.00011969424, -0.00000520835,  0.00000203282, -0.00002771005,  0.00301498376,  0.00034941456, -0.00000461734,  0.00000228035, -0.00000468579,  0.01583791395, -0.00017340875,  0.00008786901,  0.00000339598,  0.00005373929, -0.00000086108, -0.00000102268,  0.00002714572, -0.00000003167,  0.00002468477
1357847446709247,  0.00647160891, -0.00050081758,  0.00008395627, -0.00000247898,  0.00000192894, -0.00002608339,  0.00301003455,  0.00033174143, -0.00000366717,  0.00000356625, -0.00000402934,  0.01490766325, -0.00012665519,  0.00011110856,  0.00000282872,  0.00005254569, -0.00000513164, -0.00000092791,  0.00003134316,  0.00000019064,  0.00002803760
1357847450308835,  0.00628040374, -0.00052435602,  0.00004793397,  0.00000137459,  0.00000143901, -0.00002057860,  0.00300591209,  0.00031417896, -0.00000377998,  0.00000396087, -0.00000179010,  0.01400867651, -0.00011297474,  0.00008192976,  0.00000334178,  0.00005388708, -0.00000153210, -0.00000066050,  0.00003047595,  0.00000004454,  0.00002842763
1357847453708465,  0.00612857575, -0.00053844870,  0.00003165523,  0.00000359711,  0.00000116841, -0.00001077980,  0.00299030833,  0.00028710901, -0.00000343224,  0.00000387098, -0.00000060471,  0.01322358792, -0.00009356504,  0.00006528742, -0.00000103777,  0.00005047280, -0.00000006458, -0.00000010750,  0.00002578060, -0.00000002288,  0.00002384161
1357847457308055,  0.00603311987, -0.00054614574,  0.00002434109,  0.00000334635,  0.00000056523, -0.00000684987,  0.00298190629,  0.00025666736, -0.00000250778,  0.00000407918,  0.00000039352,  0.01253896955, -0.00006910927,  0.00006965034,  0.00000049089,  0.00004839340, -0.00000207371, -0.00000003588,  0.00002577520,  0.00000002181,  0.00002353890
1357847460907676,  0.00597203102, -0.00055001053,  0.00001954782,  0.00000338781, -0.00000015410, -0.00000452387,  0.00297882491,  0.00022637366, -0.00000157679,  0.00000429485,  0.00000178016,  0.01187361760, -0.00004542374,  0.00007108536,  0.00000128303,  0.00004695059, -0.00000384561, -0.00000029276,  0.00002626825,  0.00000010582,  0.00002326108
1357847464507262,  0.00588456927, -0.00055145956,  0.00001384062,  0.00000493195,  0.00000029059, -0.00000604339,  0.00294194487,  0.00020015187, -0.00000213855,  0.00000455228,  0.00000334551,  0.01120282885, -0.00004555723,  0.00006206246,  0.00000226378,  0.00003456445, -0.00000105764, -0.00000015843,  0.00002078157,  0.00000012852,  0.00001700761
1357847467906881,  0.00581275122, -0.00054908812,  0.00001259439,  0.00000539534, -0.00000060928, -0.00000331156,  0.00291420957,  0.00017150439, -0.00000181334,  0.00000476137,  0.00000254475,  0.01063248843, -0.00003878281,  0.00005763651, -0.00000066290,  0.00002527819, -0.00000033622,  0.00000027759,  0.00001847024,  0.00000008914,  0.00001283675
1357847471706457,  0.00579204629, -0.00054819168,  0.00001523860,  0.00000449808,  0.00000072300,  0.00000220194,  0.00290214088,  0.00014077141, -0.00000298153,  0.00000335563,  0.00000008204,  0.01018544368, -0.00005385617,  0.00002661350, -0.00000224609,  0.00002425652,  0.00000077618,  0.00000056149,  0.00001769332,  0.00000010875,  0.00001272744
1357847475306047,  0.00581108631, -0.00055486932,  0.00001351633,  0.00000433209,  0.00000044950,  0.00000409840,  0.00289803791,  0.00012190305, -0.00000291027,  0.00000311928, -0.00000069188,  0.00999963631, -0.00005890343,  0.00001457531, -0.00000016730,  0.00002536272, -0.00000082094,  0.00000038440,  0.00001787059, -0.00000000517,  0.00001369187
1357847478905656,  0.00584903375, -0.00056466178,  0.00001734381,  0.00000256838,  0.00000166828,  0.00000555550,  0.00290757697,  0.00010838984, -0.00000353505,  0.00000076998, -0.00000069375,  0.01003871842, -0.00006050363, -0.00002994783, -0.00000075697,  0.00002678794,  0.00000289522,  0.00000029919,  0.00002186039,  0.00000002708,  0.00001648414
1357847482505251,  0.00593311912, -0.00060321971,  0.00001968642,  0.00000158298,  0.00000106050,  0.00000573205,  0.00297413984,  0.00011413508, -0.00000340623, -0.00000003995, -0.00000587694,  0.01064403437, -0.00007764944, -0.00005789081, -0.00000512260,  0.00004150587,  0.00000418587,  0.00000056206,  0.00003057108,  0.00000030931,  0.00002530089
1357847486304833,  0.00615406599, -0.00066283399,  0.00003541112,  0.00000040198, -0.00000056676,  0.00000810632,  0.00310086685,  0.00011010870, -0.00000247754,  0.00000153473, -0.00001116388,  0.01116297165, -0.00009914337, -0.00002113941, -0.00000116104,  0.00008324972, -0.00000129183,  0.00000272551,  0.00004406669, -0.00000006830,  0.00004035386
1357847489905495,  0.00626953069, -0.00073093485,  0.00005394261, -0.00000055635, -0.00000120046,  0.00001068978,  0.00310474769,  0.00009829382, -0.00000115124,  0.00000196427, -0.00001049153,  0.01129570847, -0.00008314909, -0.00000673915,  0.00000010118,  0.00008752584, -0.00000159268,  0.00000255922,  0.00004497623,  0.00000003546,  0.00004096632
1357847493304053,  0.00638707706, -0.00078395299,  0.00007191678, -0.00000057328, -0.00000107684,  0.00001499048,  0.00310852736,  0.00008644725, -0.00000079949,  0.00000148797, -0.00001171109,  0.01141543549, -0.00007653769, -0.00001223067, -0.00000026464,  0.00009271345,  0.00000071577,  0.00000354433,  0.00004944994,  0.00000010274,  0.00004545682
1357847496903647,  0.00639441200, -0.00078860759,  0.00009401485, -0.00000341825, -0.00000064655,  0.00000814372,  0.00299025065,  0.00007742024,  0.00000096282, -0.00000019336,  0.00000270045,  0.01130479701, -0.00004574787, -0.00000183122, -0.00000020368,  0.00006986524, -0.00000452122,  0.00000233999,  0.00004136800, -0.00000019254,  0.00003692112
1357847500503268,  0.00634911417, -0.00076485777,  0.00011063926, -0.00000412613, -0.00000198186,  0.00000388179,  0.00284820484,  0.00007487114,  0.00000169156, -0.00000142316,  0.00001086740,  0.01129797414, -0.00003795019, -0.00001874562, -0.00000114415,  0.00004072004,  0.00000162678,  0.00000093170,  0.00002751454,  0.00000035294,  0.00002258315
1357847504302815,  0.00637256783, -0.00075206064,  0.00012794558, -0.00000278271, -0.00000360028,  0.00000213721,  0.00275088449,  0.00007649768,  0.00000202181, -0.00000033411,  0.00001338924,  0.01163268469, -0.00002863257, -0.00004838403, -0.00000094041,  0.00003339750,  0.00000259809,  0.00000097016,  0.00002900084,  0.00000017904,  0.00002069298
1357847508102400,  0.00638221936, -0.00073532482,  0.00016115841, -0.00000239868, -0.00000565146, -0.00000218594,  0.00263096835,  0.00007548943,  0.00000348999,  0.00000035720,  0.00001483496,  0.01224109718, -0.00003103079, -0.00007821739, -0.00000040634,  0.00003377027,  0.00000237594,  0.00000093478,  0.00003097104,  0.00000003823,  0.00002155109
1357847511901977,  0.00637142364, -0.00070036225,  0.00019015324, -0.00000326384, -0.00000565965, -0.00000981849,  0.00248169476,  0.00007790745,  0.00000345820,  0.00000004654,  0.00001452759,  0.01315294151, -0.00007006183, -0.00010179469,  0.00000115617,  0.00003210148,  0.00000308926,  0.00000056195,  0.00002899227, -0.00000017906,  0.00002038523
1357847515501576,  0.00635253821, -0.00062358287,  0.00022085725, -0.00000471380, -0.00000478824, -0.00001519230,  0.00234247232,  0.00008491457,  0.00000361225, -0.00000144954,  0.00001316667,  0.01423638363, -0.00011927811, -0.00010765847, -0.00000273411,  0.00003203767,  0.00000203158,  0.00000031735,  0.00002279843,  0.00000004224,  0.00001566095
1357847519101176,  0.00633371591, -0.00053317622,  0.00024835340, -0.00000472135, -0.00000459667, -0.00001935296,  0.00224501297,  0.00009669959,  0.00000400687, -0.00000195875,  0.00000956173,  0.01554453915, -0.00014288423, -0.00014092151, -0.00000831456,  0.00003446530,  0.00000517018,  0.00000014018,  0.00002359585,  0.00000033819,  0.00001607635
1357847523100730,  0.00632386966, -0.00044187814,  0.00025969948, -0.00000612410, -0.00000308584, -0.00002360933,  0.00221723868,  0.00011798693,  0.00000393852, -0.00000304243,  0.00000058212,  0.01696558951, -0.00021230644, -0.00012858209, -0.00000603981,  0.00003976716,  0.00000830588, -0.00000050890,  0.00002705686,  0.00000002029,  0.00001825837
1357847529300034,  0.00620439404, -0.00039325653,  0.00016606596, -0.00000174713,  0.00000247391, -0.00001587136,  0.00215085676,  0.00017481795, -0.00000202976, -0.00000190330,  0.00000308501,  0.01687200109, -0.00022449582,  0.00006959087,  0.00000645093,  0.00004499822, -0.00000834617, -0.00000168168,  0.00002341804,  0.00000070302,  0.00001791793
1357847533299590,  0.00612741290, -0.00034946543,  0.00011474453, -0.00000053154,  0.00000188553, -0.00000878335,  0.00210019249,  0.00020425321, -0.00000205435, -0.00000175639,  0.00000401836,  0.01678554418, -0.00021980534, -0.00003138405,  0.00002040331,  0.00004574908,  0.00000209636, -0.00000214407,  0.00002349853, -0.00000025361,  0.00002070594
1357847536699215,  0.00608202449, -0.00029254518,  0.00008892213,  0.00000038746,  0.00000198744, -0.00001031614,  0.00206015228,  0.00022608852, -0.00000218236, -0.00000233175,  0.00000048758,  0.01738570441, -0.00022882975, -0.00008143826, -0.00000544402,  0.00004793680,  0.00000439063, -0.00000040773,  0.00002407533,  0.00000001254,  0.00002056374
1357847540898741,  0.00602150378, -0.00024147582,  0.00005135254,  0.00000144917,  0.00000236661, -0.00001153395,  0.00202139583,  0.00024980633, -0.00000295962, -0.00000203734, -0.00000005605,  0.01791511935, -0.00024663875, -0.00006550579, -0.00000145711,  0.00004702178,  0.00000201777, -0.00000037714,  0.00002127756, -0.00000000846,  0.00001833432